�N����,����,�~����,�C��,���x,�C��,����,���ϕ���,�ő�u�ԕ���,�ő厞����,���˗�,�I�_���x,�n�����x,�ő啗���N��,DTYPE
"24/02/28","00:10",0.0,2.4,94.3,1020.6,314.3,0.8,2.4,340.0,0.00,1.6,7.9,"00:08:54",1
"24/02/28","00:20",0.0,2.6,94.4,1020.6,328.1,1.7,2.8,339.8,0.00,1.8,7.9,"00:17:20",1
"24/02/28","00:30",0.0,2.7,94.4,1020.8,308.8,1.0,1.7,331.0,0.00,1.9,8.1,"00:26:44",1
"24/02/28","00:40",0.0,2.8,94.5,1021.1,320.8,1.1,2.1,326.2,0.00,2.0,7.9,"00:30:24",1
"24/02/28","00:50",0.0,2.9,94.4,1021.3,325.0,1.5,2.4,339.2,0.00,2.1,7.8,"00:41:28",1
"24/02/28","01:00",0.0,2.9,94.4,1021.3,326.9,1.0,1.8,329.0,0.00,2.1,7.6,"00:54:16",1
"24/02/28","01:10",0.0,3.0,94.3,1021.3,307.8,1.0,2.0,328.2,0.00,2.2,7.7,"01:03:36",1
"24/02/28","01:20",0.0,3.0,94.3,1021.8,310.4,1.1,2.1,337.6,0.00,2.2,7.9,"01:10:48",1
"24/02/28","01:30",0.0,3.0,94.2,1021.5,311.5,1.2,2.5,352.0,0.00,2.2,7.7,"01:22:16",1
"24/02/28","01:40",0.0,3.0,94.0,1021.3,325.1,1.3,3.5,325.8,0.00,2.2,7.7,"01:39:16",1
"24/02/28","01:50",0.0,3.5,93.5,1021.5,353.5,1.2,1.7,332.0,0.00,2.6,7.7,"01:41:10",1
"24/02/28","02:00",0.0,3.5,93.0,1021.3,311.5,1.2,2.2,307.9,0.00,2.5,7.8,"01:56:26",1
"24/02/28","02:10",0.0,3.4,92.6,1021.3,287.9,0.8,1.4,314.5,0.00,2.4,7.6,"02:07:34",1
"24/02/28","02:20",0.0,3.4,92.3,1021.3,310.7,1.0,1.6,317.1,0.00,2.3,7.8,"02:10:56",1
"24/02/28","02:30",0.0,3.4,91.9,1021.1,315.6,1.3,2.4,322.4,0.00,2.3,7.7,"02:28:14",1
"24/02/28","02:40",0.0,3.4,91.7,1021.1,327.9,1.2,2.4,329.8,0.00,2.2,7.6,"02:37:36",1
"24/02/28","02:50",0.0,3.5,91.4,1021.1,318.0,1.5,2.2,329.0,0.00,2.3,7.6,"02:40:20",1
"24/02/28","03:00",0.0,3.6,91.2,1021.1,323.4,1.6,2.7,323.3,0.00,2.3,7.7,"02:55:56",1
"24/02/28","03:10",0.0,3.6,90.7,1021.5,305.2,2.2,3.7,322.8,0.00,2.3,7.6,"03:09:54",1
"24/02/28","03:20",0.0,4.0,89.4,1021.5,320.9,2.8,3.4,334.8,0.00,2.5,7.7,"03:18:52",1
"24/02/28","03:30",0.0,4.3,87.8,1022.0,315.9,2.8,3.7,312.2,0.00,2.5,7.8,"03:21:56",1
"24/02/28","03:40",0.0,4.5,85.7,1021.3,332.3,2.7,3.7,348.8,0.00,2.4,7.7,"03:34:14",1
"24/02/28","03:50",0.0,4.5,83.7,1021.5,324.4,3.0,3.6,315.4,0.00,2.0,7.7,"03:45:34",1
"24/02/28","04:00",0.0,4.6,81.5,1021.8,318.4,3.2,4.7,307.8,0.00,1.8,7.7,"03:52:44",1
"24/02/28","04:10",0.0,4.4,80.7,1021.8,332.9,3.1,3.7,336.9,0.00,1.4,7.6,"04:07:24",1
"24/02/28","04:20",0.0,4.4,79.8,1022.0,310.4,3.0,3.9,323.2,0.00,1.3,7.6,"04:13:38",1
"24/02/28","04:30",0.0,4.2,80.3,1021.5,331.2,2.5,3.1,338.8,0.00,1.2,7.2,"04:24:02",1
"24/02/28","04:40",0.0,4.3,81.1,1021.8,325.6,3.0,5.5,327.4,0.00,1.4,7.5,"04:35:50",1
"24/02/28","04:50",0.0,4.5,81.4,1021.5,328.6,3.0,4.7,326.3,0.00,1.6,7.7,"04:42:52",1
"24/02/28","05:00",0.0,4.4,81.6,1021.3,312.8,2.8,4.7,318.0,0.00,1.6,7.6,"04:50:18",1
"24/02/28","05:10",0.0,4.5,81.6,1021.5,314.1,2.6,3.2,331.7,0.00,1.7,7.4,"05:05:22",1
"24/02/28","05:20",0.0,4.3,82.3,1021.3,328.4,2.2,3.1,328.2,0.00,1.6,7.4,"05:12:04",1
"24/02/28","05:30",0.0,4.0,83.8,1021.3,328.5,2.3,3.1,336.5,0.00,1.6,7.4,"05:21:24",1
"24/02/28","05:40",0.0,3.8,85.1,1021.5,324.7,2.3,3.3,342.5,0.00,1.6,7.4,"05:31:38",1
"24/02/28","05:50",0.0,3.8,85.9,1021.1,330.7,1.7,2.5,321.8,0.00,1.7,7.4,"05:40:52",1
"24/02/28","06:00",0.0,3.8,86.6,1021.3,307.2,2.0,2.6,312.9,0.00,1.8,7.5,"05:52:26",1
"24/02/28","06:10",0.0,3.9,87.2,1021.8,299.7,2.0,2.7,332.6,0.00,2.0,7.3,"06:07:06",1
"24/02/28","06:20",0.0,3.8,87.7,1021.5,304.7,1.6,2.0,314.7,0.00,2.0,7.5,"06:15:22",1
"24/02/28","06:30",0.0,3.9,88.0,1021.8,308.5,1.8,2.7,320.0,0.00,2.1,7.6,"06:22:42",1
"24/02/28","06:40",0.0,3.9,88.0,1021.8,322.1,2.2,3.4,328.7,0.00,2.1,7.4,"06:35:02",1
"24/02/28","06:50",0.0,3.9,87.9,1021.5,318.4,1.6,2.4,311.8,0.00,2.1,7.4,"06:49:40",1
"24/02/28","07:00",0.0,3.8,88.0,1021.5,304.3,1.3,2.2,323.0,0.00,2.0,7.2,"06:54:16",1
"24/02/28","07:10",0.0,3.9,88.2,1022.5,300.9,1.6,2.8,261.9,0.01,2.2,7.4,"07:05:14",1
"24/02/28","07:20",0.0,4.2,88.5,1022.3,301.0,1.1,2.8,330.0,0.03,2.5,7.3,"07:17:24",1
"24/02/28","07:30",0.0,5.0,88.5,1022.5,251.6,0.7,1.9,263.6,0.07,3.3,7.5,"07:28:48",1
"24/02/28","07:40",0.0,5.5,87.9,1022.5,272.2,0.7,1.8,253.1,0.08,3.7,7.5,"07:38:16",1
"24/02/28","07:50",0.0,5.7,86.2,1022.7,327.9,0.8,1.7,315.9,0.05,3.6,7.4,"07:40:56",1
"24/02/28","08:00",0.0,5.9,83.5,1023.2,285.6,1.5,3.9,341.1,0.05,3.4,7.5,"07:58:32",1
"24/02/28","08:10",0.0,6.2,80.1,1023.4,309.3,1.3,2.1,316.3,0.07,3.1,7.5,"08:09:28",1
"24/02/28","08:20",0.0,6.8,75.7,1023.2,319.1,1.6,2.5,331.8,0.13,2.9,7.6,"08:12:40",1
"24/02/28","08:30",0.0,7.3,72.0,1023.4,308.5,1.8,3.3,287.6,0.24,2.6,7.4,"08:24:56",1
"24/02/28","08:40",0.0,7.4,69.8,1023.7,321.2,2.2,3.6,335.4,0.17,2.3,7.3,"08:33:16",1
"24/02/28","08:50",0.0,7.6,68.2,1023.2,326.2,2.2,4.4,340.2,0.23,2.2,7.6,"08:42:56",1
"24/02/28","09:00",0.0,7.9,67.7,1023.4,328.9,2.2,5.5,341.3,0.27,2.3,7.5,"08:55:06",1
"24/02/28","09:10",0.0,8.5,66.0,1023.7,328.9,1.6,3.3,343.3,0.35,2.6,7.5,"09:04:40",1
"24/02/28","09:20",0.0,8.8,62.9,1023.4,327.2,2.0,4.0,345.5,0.46,2.2,7.7,"09:12:20",1
"24/02/28","09:30",0.0,8.5,63.9,1023.2,329.0,3.0,6.2,330.4,0.43,2.1,7.7,"09:27:20",1
"24/02/28","09:40",0.0,9.1,62.0,1023.4,341.5,1.7,4.9,340.3,0.47,2.3,7.7,"09:30:16",1
"24/02/28","09:50",0.0,9.4,61.6,1023.2,350.1,1.2,3.1,341.7,0.49,2.4,7.7,"09:42:36",1
"24/02/28","10:00",0.0,9.8,60.8,1022.7,337.6,1.5,3.2,348.9,0.54,2.6,7.8,"09:58:20",1
"24/02/28","10:10",0.0,9.0,62.9,1023.0,329.9,3.2,5.8,338.0,0.47,2.4,7.8,"10:09:54",1
"24/02/28","10:20",0.0,8.8,64.3,1022.7,326.8,3.0,5.6,333.6,0.37,2.5,7.8,"10:10:30",1
"24/02/28","10:30",0.0,8.9,63.0,1022.7,342.8,3.6,6.5,345.0,0.50,2.3,7.8,"10:22:48",1
"24/02/28","10:40",0.0,9.1,63.2,1022.7,343.0,3.4,6.8,322.2,0.48,2.5,8.0,"10:33:56",1
"24/02/28","10:50",0.0,9.4,63.2,1022.7,334.7,2.8,6.0,328.9,0.55,2.8,8.2,"10:43:42",1
"24/02/28","11:00",0.0,9.6,62.6,1022.7,335.5,3.1,6.4,333.9,0.56,2.9,8.1,"10:54:48",1
"24/02/28","11:10",0.0,10.0,61.0,1022.5,335.8,2.1,3.1,334.0,0.58,2.9,8.4,"11:01:46",1
"24/02/28","11:20",0.0,10.0,61.0,1022.7,328.2,4.7,7.1,334.5,0.59,2.9,8.4,"11:10:50",1
"24/02/28","11:30",0.0,9.9,59.7,1022.5,330.8,5.9,7.8,327.2,0.59,2.5,8.4,"11:26:32",1
"24/02/28","11:40",0.0,10.1,57.0,1022.3,327.0,2.2,4.1,324.1,0.60,2.0,8.4,"11:38:00",1
"24/02/28","11:50",0.0,10.4,56.8,1022.0,353.1,2.6,6.5,326.2,0.61,2.2,8.6,"11:44:08",1
"24/02/28","12:00",0.0,10.4,56.6,1022.0,320.9,3.0,4.1,349.7,0.61,2.2,8.7,"11:52:58",1
"24/02/28","12:10",0.0,10.4,56.2,1021.8,346.9,2.6,3.5,29.1,0.61,2.1,8.6,"12:07:14",1
"24/02/28","12:20",0.0,10.8,57.9,1021.5,339.1,3.5,4.9,335.1,0.61,2.9,8.7,"12:14:36",1
"24/02/28","12:30",0.0,11.1,57.6,1021.3,334.2,2.2,3.7,330.7,0.61,3.1,9.1,"12:23:02",1
"24/02/28","12:40",0.0,11.1,55.2,1021.3,356.1,2.2,6.8,331.2,0.61,2.5,8.9,"12:31:52",1
"24/02/28","12:50",0.0,10.8,55.3,1021.3,358.5,3.9,4.3,356.5,0.60,2.2,9.1,"12:45:00",1
"24/02/28","13:00",0.0,10.8,55.2,1021.3,339.8,3.0,3.7,358.8,0.60,2.2,9.2,"12:51:50",1
"24/02/28","13:10",0.0,10.8,56.7,1021.5,335.6,3.4,5.5,357.2,0.59,2.6,9.3,"13:06:38",1
"24/02/28","13:20",0.0,10.7,56.1,1021.3,344.0,4.0,6.3,296.3,0.58,2.4,9.2,"13:12:00",1
"24/02/28","13:30",0.0,10.6,56.3,1021.3,342.0,3.6,6.3,350.0,0.58,2.3,9.6,"13:23:10",1
"24/02/28","13:40",0.0,10.8,56.4,1021.5,349.8,3.1,6.7,350.4,0.56,2.5,9.6,"13:31:46",1
"24/02/28","13:50",0.0,10.7,55.8,1021.3,341.7,3.6,6.6,349.7,0.56,2.3,9.7,"13:46:50",1
"24/02/28","14:00",0.0,10.8,57.4,1021.5,345.1,3.4,5.2,324.8,0.53,2.8,9.7,"13:56:48",1
"24/02/28","14:10",0.0,11.1,56.4,1021.3,338.7,3.0,5.8,336.2,0.52,2.8,9.7,"14:00:18",1
"24/02/28","14:20",0.0,11.1,54.8,1021.3,354.6,2.8,4.2,336.3,0.50,2.4,9.9,"14:16:16",1
"24/02/28","14:30",0.0,10.4,57.2,1022.0,340.6,4.1,7.1,313.5,0.34,2.3,9.9,"14:28:18",1
"24/02/28","14:40",0.0,10.8,56.5,1021.5,353.9,2.1,3.6,347.2,0.46,2.5,10.1,"14:32:14",1
"24/02/28","14:50",0.0,10.4,58.4,1021.3,351.8,2.8,5.6,325.0,0.41,2.6,10.2,"14:46:48",1
"24/02/28","15:00",0.0,10.3,59.4,1021.5,348.4,3.4,6.0,352.2,0.41,2.8,10.1,"14:54:40",1
"24/02/28","15:10",0.0,10.1,58.9,1021.3,341.0,3.9,8.1,324.7,0.39,2.5,10.3,"15:02:20",1
"24/02/28","15:20",0.0,10.4,58.9,1021.8,338.9,3.0,5.7,347.3,0.37,2.8,10.3,"15:13:40",1
"24/02/28","15:30",0.0,10.0,58.7,1021.5,332.2,3.5,7.7,331.6,0.34,2.3,10.5,"15:24:46",1
"24/02/28","15:40",0.0,9.9,58.9,1022.0,3.5,2.5,4.8,350.6,0.31,2.3,10.5,"15:30:26",1
"24/02/28","15:50",0.0,9.9,58.8,1021.3,340.7,2.7,5.0,343.8,0.28,2.3,10.5,"15:41:58",1
"24/02/28","16:00",0.0,9.6,58.8,1021.5,349.2,2.7,5.6,11.2,0.26,2.0,10.6,"15:58:44",1
"24/02/28","16:10",0.0,9.0,59.8,1021.5,4.0,4.2,6.4,25.7,0.23,1.7,10.4,"16:06:16",1
"24/02/28","16:20",0.0,8.9,60.7,1021.8,349.4,4.4,7.0,358.3,0.20,1.8,10.4,"16:13:32",1
"24/02/28","16:30",0.0,9.1,60.2,1021.8,344.3,3.5,5.2,346.6,0.17,1.8,10.6,"16:21:06",1
"24/02/28","16:40",0.0,8.8,61.0,1021.8,336.8,3.9,6.2,351.2,0.12,1.7,10.4,"16:31:22",1
"24/02/28","16:50",0.0,8.8,60.3,1022.3,329.7,4.2,6.7,349.3,0.11,1.6,10.4,"16:43:20",1
"24/02/28","17:00",0.0,8.5,60.9,1022.0,332.4,3.5,6.2,323.7,0.08,1.4,10.5,"16:52:58",1
"24/02/28","17:10",0.0,8.1,61.3,1022.3,345.4,3.9,8.8,346.3,0.06,1.1,10.5,"17:04:12",1
"24/02/28","17:20",0.0,7.9,61.4,1023.0,341.6,3.5,8.1,342.2,0.03,1.0,10.5,"17:17:36",1
"24/02/28","17:30",0.0,7.6,61.5,1023.0,347.2,3.4,7.7,342.1,0.01,0.7,10.6,"17:25:20",1
"24/02/28","17:40",0.0,7.4,63.2,1022.5,338.6,3.7,6.0,341.9,0.00,0.9,10.2,"17:35:28",1
"24/02/28","17:50",0.0,7.1,64.6,1022.7,332.8,4.4,7.1,326.4,0.00,0.9,10.3,"17:42:48",1
"24/02/28","18:00",0.0,6.7,65.4,1023.0,332.6,4.5,6.6,339.5,0.00,0.7,10.2,"17:52:48",1
"24/02/28","18:10",0.0,6.4,66.4,1023.0,327.1,3.9,6.3,319.8,0.00,0.6,10.2,"18:02:00",1
"24/02/28","18:20",0.0,6.3,66.9,1023.0,320.7,4.4,6.4,328.2,0.00,0.6,10.2,"18:17:44",1
"24/02/28","18:30",0.0,6.2,67.2,1023.4,316.9,4.6,6.8,325.6,0.00,0.6,10.1,"18:20:24",1
"24/02/28","18:40",0.0,6.1,67.2,1023.2,316.4,4.0,5.8,327.2,0.00,0.5,10.0,"18:30:16",1
"24/02/28","18:50",0.0,5.9,68.2,1023.4,315.9,3.5,5.4,332.0,0.00,0.5,10.1,"18:44:56",1
"24/02/28","19:00",0.0,5.2,70.7,1023.2,328.1,3.0,4.1,330.7,0.00,0.4,10.0,"18:50:32",1
"24/02/28","19:10",0.0,4.7,73.2,1023.2,326.4,2.7,4.1,342.3,0.00,0.4,10.0,"19:09:54",1
"24/02/28","19:20",0.0,4.5,74.6,1022.7,316.8,3.0,4.4,337.7,0.00,0.4,9.9,"19:19:46",1
"24/02/28","19:30",0.0,4.5,75.1,1022.7,325.7,3.0,4.8,332.2,0.00,0.5,9.9,"19:24:14",1
"24/02/28","19:40",0.0,4.3,75.6,1023.2,327.3,1.7,3.1,336.7,0.00,0.4,9.8,"19:32:12",1
"24/02/28","19:50",0.0,3.9,76.2,1023.0,319.7,1.2,1.9,320.1,0.00,0.1,9.6,"19:48:30",1
"24/02/28","20:00",0.0,3.4,77.3,1023.0,326.4,1.7,2.6,323.6,0.00,-0.2,9.7,"19:51:34",1
"24/02/28","20:10",0.0,3.4,78.6,1022.7,328.9,2.2,3.5,343.8,0.00,0.1,9.4,"20:02:32",1
"24/02/28","20:20",0.0,3.6,79.6,1022.5,314.3,2.7,4.2,334.9,0.00,0.4,9.4,"20:19:44",1
"24/02/28","20:30",0.0,3.7,80.0,1022.7,316.6,2.7,4.2,316.5,0.00,0.6,9.3,"20:20:30",1
"24/02/28","20:40",0.0,3.4,80.7,1022.7,322.3,2.0,3.2,324.1,0.00,0.4,9.2,"20:39:20",1
"24/02/28","20:50",0.0,3.2,81.3,1023.0,311.4,1.8,2.9,319.7,0.00,0.3,9.2,"20:44:32",1
"24/02/28","21:00",0.0,3.0,82.1,1022.3,321.9,1.0,2.0,304.4,0.00,0.3,9.2,"20:54:12",1
"24/02/28","21:10",0.0,3.2,82.9,1022.5,309.2,2.6,4.1,327.0,0.00,0.6,9.3,"21:07:10",1
"24/02/28","21:20",0.0,3.1,83.6,1022.5,322.8,3.2,4.8,338.8,0.00,0.6,9.1,"21:18:24",1
"24/02/28","21:30",0.0,3.1,84.2,1022.5,320.0,3.4,4.2,337.3,0.00,0.7,9.0,"21:24:10",1
"24/02/28","21:40",0.0,2.9,84.6,1022.3,312.3,3.0,4.2,315.4,0.00,0.6,8.9,"21:36:58",1
"24/02/28","21:50",0.0,2.6,85.1,1022.3,300.5,2.2,4.8,331.5,0.00,0.4,8.9,"21:40:14",1
"24/02/28","22:00",0.0,2.2,85.5,1022.0,306.0,1.5,2.2,324.8,0.00,0.1,8.7,"21:51:26",1
"24/02/28","22:10",0.0,2.1,86.2,1021.5,299.5,1.7,2.9,316.6,0.00,0.1,8.9,"22:02:20",1
"24/02/28","22:20",0.0,2.1,86.8,1021.5,280.7,1.6,2.0,306.3,0.00,0.2,8.9,"22:12:00",1
"24/02/28","22:30",0.0,2.0,87.4,1021.1,311.2,2.2,2.9,313.9,0.00,0.2,8.7,"22:22:32",1
"24/02/28","22:40",0.0,2.0,88.1,1021.3,314.5,2.5,3.3,331.6,0.00,0.3,8.4,"22:39:00",1
"24/02/28","22:50",0.0,2.2,88.5,1021.1,321.8,2.7,3.5,330.9,0.00,0.5,8.5,"22:49:20",1
"24/02/28","23:00",0.0,2.2,88.6,1021.3,326.5,2.6,4.1,339.2,0.00,0.6,8.8,"22:51:00",1
"24/02/28","23:10",0.0,2.2,88.7,1021.8,326.6,2.5,3.5,335.5,0.00,0.6,8.3,"23:04:24",1
"24/02/28","23:20",0.0,2.0,88.9,1021.3,326.9,2.2,2.8,336.4,0.00,0.4,8.4,"23:14:18",1
"24/02/28","23:30",0.0,2.0,89.0,1021.5,330.6,2.3,3.4,344.4,0.00,0.4,8.5,"23:21:40",1
"24/02/28","23:40",0.0,2.0,89.1,1021.8,330.1,2.5,3.3,342.4,0.00,0.4,8.4,"23:31:02",1
"24/02/28","23:50",0.0,2.0,89.3,1021.3,333.7,2.1,3.3,343.2,0.00,0.5,8.2,"23:40:40",1
"24/02/28","24:00",0.0,2.0,89.3,1021.5,330.0,2.5,3.6,341.5,0.00,0.5,8.2,"23:53:48",1
